TimeEST,TemperatureF,Dew PointF,Humidity,Sea Level PressureIn,VisibilityMPH,Wind Direction,Wind SpeedMPH,Gust SpeedMPH,PrecipitationIn,Events,Conditions,WindDirDegrees,DateUTC
12:53 AM,32.0,28.9,88,30.35,10.0,North,3.5,-,N/A,,Clear,10,2012-12-14 05:53:00
1:53 AM,32.0,28.9,88,30.35,10.0,Calm,Calm,-,N/A,,Clear,0,2012-12-14 06:53:00
2:53 AM,32.0,28.9,88,30.35,10.0,Calm,Calm,-,N/A,,Clear,0,2012-12-14 07:53:00
3:53 AM,30.9,28.0,89,30.34,10.0,Calm,Calm,-,N/A,,Clear,0,2012-12-14 08:53:00
4:53 AM,30.9,27.0,85,30.34,10.0,NW,3.5,-,N/A,,Clear,310,2012-12-14 09:53:00
5:53 AM,30.9,27.0,85,30.35,10.0,Calm,Calm,-,N/A,,Clear,0,2012-12-14 10:53:00
6:53 AM,30.0,27.0,88,30.36,8.0,Calm,Calm,-,N/A,,Clear,0,2012-12-14 11:53:00
7:53 AM,28.9,27.0,92,30.38,5.0,Calm,Calm,-,N/A,,Clear,0,2012-12-14 12:53:00
8:53 AM,37.0,33.1,86,30.38,10.0,Calm,Calm,-,N/A,,Clear,0,2012-12-14 13:53:00
9:53 AM,44.1,36.0,73,30.37,10.0,NNE,3.5,-,N/A,,Clear,30,2012-12-14 14:53:00
10:53 AM,48.0,35.1,61,30.36,10.0,North,3.5,-,N/A,,Clear,10,2012-12-14 15:53:00
11:53 AM,51.1,33.1,50,30.34,10.0,Variable,3.5,-,N/A,,Clear,0,2012-12-14 16:53:00
12:53 PM,53.1,30.9,43,30.32,10.0,Calm,Calm,-,N/A,,Clear,0,2012-12-14 17:53:00
1:53 PM,55.0,27.0,34,30.28,10.0,SSW,4.6,-,N/A,,Clear,210,2012-12-14 18:53:00
2:53 PM,55.0,25.0,31,30.27,10.0,Calm,Calm,-,N/A,,Clear,0,2012-12-14 19:53:00
3:53 PM,55.9,26.1,32,30.26,10.0,Calm,Calm,-,N/A,,Clear,0,2012-12-14 20:53:00
4:53 PM,46.9,34.0,61,30.26,10.0,Calm,Calm,-,N/A,,Clear,0,2012-12-14 21:53:00
5:53 PM,39.0,33.1,79,30.26,10.0,Calm,Calm,-,N/A,,Clear,0,2012-12-14 22:53:00
6:53 PM,37.0,32.0,82,30.26,10.0,Calm,Calm,-,N/A,,Clear,0,2012-12-14 23:53:00
7:53 PM,34.0,30.0,85,30.26,10.0,Calm,Calm,-,N/A,,Clear,0,2012-12-15 00:53:00
8:53 PM,33.1,30.0,89,30.28,10.0,Calm,Calm,-,N/A,,Clear,0,2012-12-15 01:53:00
9:53 PM,30.9,28.9,92,30.28,10.0,Calm,Calm,-,N/A,,Clear,0,2012-12-15 02:53:00
10:53 PM,30.0,28.0,92,30.29,8.0,Calm,Calm,-,N/A,,Clear,0,2012-12-15 03:53:00
11:18 PM,30.2,28.4,93,30.27,1.8,Calm,Calm,-,N/A,,Clear,0,2012-12-15 04:18:00
11:29 PM,30.2,28.4,93,30.27,0.8,Calm,Calm,-,N/A,,Clear,0,2012-12-15 04:29:00
11:53 PM,30.9,28.0,89,30.27,1.5,Calm,Calm,-,N/A,,Clear,0,2012-12-15 04:53:00
11:56 PM,30.2,28.4,93,30.26,4.0,Calm,Calm,-,N/A,,Clear,0,2012-12-15 04:56:00